This demonstration page uses our WeatherBlox Daily Observations layout. Learn more.

Left ArrowRight Arrow

Hourly Observations for February 8, 2016

Temp ( °F °C ) Dew Point ( °F °C ) Humidity (%) Winds ( mph kmh ) Pressure ( in mb ) Visibility ( mi km ) Precip ( " mm )
12:14 am 00:14 Mostly Cloudy 36 2 32 undefined 87 87 W 7 11 29.80 1009 10 16 N/A
12:34 am 00:34 Cloudy 37 3 32 undefined 81 81 WSW 6 9 29.80 1009 10 16 N/A
12:55 am 00:55 Cloudy 37 3 32 undefined 81 81 WSW 5 7 29.77 1008 10 16 N/A
1:14 am 01:14 Cloudy 37 3 32 undefined 81 81 W 6 9 29.77 1008 10 16 N/A
1:34 am 01:34 Cloudy 37 3 32 undefined 81 81 WSW 3 6 29.74 1007 10 16 N/A
1:55 am 01:55 Cloudy 36 2 30 -1 81 81 SW 5 7 29.74 1007 10 16 N/A
2:14 am 02:14 Cloudy 34 1 30 -1 87 87 SW 5 7 29.74 1007 10 16 N/A
2:34 am 02:34 Cloudy 36 2 30 -1 81 81 WSW 5 7 29.74 1007 10 16 N/A
2:55 am 02:55 Cloudy 34 1 32 undefined 93 93 WSW 5 7 29.74 1007 10 16 N/A
3:14 am 03:14 Cloudy 36 2 32 undefined 87 87 N N/A 29.74 1007 10 16 N/A
3:34 am 03:34 Cloudy 36 2 30 -1 81 81 SSW 3 6 29.71 1006 10 16 N/A
3:55 am 03:55 Cloudy 36 2 32 undefined 87 87 SSW 5 7 29.71 1006 10 16 N/A
4:14 am 04:14 Cloudy 36 2 32 undefined 87 87 WSW 5 7 29.71 1006 10 16 N/A
4:34 am 04:34 Cloudy 37 3 30 -1 75 75 WSW 9 15 29.71 1006 10 16 N/A
4:55 am 04:55 Cloudy 37 3 30 -1 75 75 W 8 13 29.71 1006 10 16 N/A
5:14 am 05:14 Cloudy 36 2 32 undefined 87 87 W 13 20 29.71 1006 10 16 N/A
5:34 am 05:34 Cloudy 36 2 32 undefined 87 87 W 12 19 29.71 1006 7 11 N/A
5:55 am 05:55 Cloudy 34 1 32 undefined 93 93 W 9 15 29.71 1006 7 11 N/A
6:14 am 06:14 Cloudy 34 1 32 undefined 93 93 W 12 19 29.71 1006 7 11 N/A
6:34 am 06:34 Cloudy 32 undefined 32 undefined 100 100 W 8 13 29.71 1006 7 11 N/A
6:55 am 06:55 Cloudy 32 undefined 32 undefined 100 100 W 3 6 29.71 1006 2 2 N/A
7:14 am 07:14 Cloudy 32 undefined 32 undefined 100 100 N N/A 29.71 1006 2 2 N/A
7:34 am 07:34 Cloudy 32 undefined 32 undefined 100 100 N N/A 29.71 1006 2 2 N/A
7:55 am 07:55 Cloudy 32 undefined 32 undefined 100 100 N N/A 29.71 1006 3 5 N/A
8:14 am 08:14 Cloudy 32 undefined 32 undefined 100 100 N N/A 29.71 1006 2 3 N/A
8:35 am 08:35 Cloudy 32 undefined 32 undefined 100 100 N N/A 29.71 1006 2 3 N/A
8:54 am 08:54 Cloudy 32 undefined 32 undefined 100 100 N N/A 29.71 1006 2 3 N/A
9:14 am 09:14 Cloudy 32 undefined 32 undefined 100 100 N N/A 29.71 1006 2 2 N/A
9:35 am 09:35 Cloudy 32 undefined 32 undefined 100 100 WSW 3 6 29.71 1006 3 5 N/A
9:54 am 09:54 Cloudy 32 undefined 32 undefined 100 100 W 6 9 29.71 1006 3 5 N/A
10:14 am 10:14 Cloudy 34 1 32 undefined 93 93 W 7 11 29.68 1005 10 16 N/A
10:35 am 10:35 Mostly Cloudy 36 2 32 undefined 87 87 W 7 11 29.68 1005 10 16 N/A
10:54 am 10:54 Cloudy 36 2 32 undefined 87 87 W 8 13 29.68 1005 10 16 N/A
11:14 am 11:14 Cloudy 36 2 30 -1 81 81 W 7 11 29.68 1005 7 11 N/A
11:35 am 11:35 Cloudy 36 2 30 -1 81 81 W 6 9 29.68 1005 10 16 N/A
11:54 am 11:54 Cloudy 37 3 32 undefined 81 81 WNW 7 11 29.68 1005 10 16 N/A
12:14 pm 12:14 Mostly Cloudy 36 2 30 -1 81 81 WNW 8 13 29.68 1005 10 16 N/A
12:35 pm 12:35 Cloudy 36 2 30 -1 81 81 WNW 9 15 29.68 1005 10 16 N/A
12:54 pm 12:54 Cloudy 36 2 28 -2 75 75 W 7 11 29.68 1005 10 16 N/A
1:15 pm 13:15 Cloudy 36 2 30 -1 81 81 WNW 12 19 29.68 1005 10 16 N/A
1:34 pm 13:34 Cloudy 37 3 30 -1 75 75 WNW 8 13 29.65 1004 10 16 N/A
1:54 pm 13:54 Cloudy 37 3 30 -1 75 75 WNW 7 11 29.65 1004 10 16 N/A
2:15 pm 14:15 Cloudy 36 2 30 -1 81 81 NW 17 28 29.65 1004 10 16 N/A
2:34 pm 14:34 Cloudy 32 undefined 30 -1 93 93 NW 16 26 29.68 1005 10 16 N/A
2:54 pm 14:54 Cloudy 32 undefined 28 -2 87 87 WNW 16 26 29.68 1005 5 8 N/A
3:15 pm 15:15 Cloudy 30 -1 28 -2 93 93 WNW 18 30 29.71 1006 4 6 N/A
3:34 pm 15:34 Cloudy 30 -1 27 -3 86 86 WNW 21 33 29.74 1007 4 6 N/A
3:54 pm 15:54 Cloudy 30 -1 27 -3 86 86 WNW 20 31 29.74 1007 10 16 N/A
4:15 pm 16:15 Cloudy 28 -2 27 -3 93 93 WNW 16 26 29.74 1007 7 11 N/A
4:34 pm 16:34 Cloudy 28 -2 25 -4 86 86 WNW 20 31 29.74 1007 7 11 N/A
4:54 pm 16:54 Cloudy 28 -2 23 -5 80 80 WNW 18 30 29.77 1008 10 16 N/A
5:15 pm 17:15 Cloudy 28 -2 23 -5 80 80 WNW 14 22 29.77 1008 5 8 N/A
5:34 pm 17:34 Cloudy 27 -3 23 -5 86 86 W 15 24 29.77 1008 3 4 N/A
5:54 pm 17:54 Cloudy 27 -3 23 -5 86 86 WNW 17 28 29.77 1008 3 4 N/A
6:15 pm 18:15 Cloudy 27 -3 23 -5 86 86 WNW 14 22 29.80 1009 4 6 N/A
6:34 pm 18:34 Cloudy 25 -4 21 -6 86 86 WNW 13 20 29.80 1009 10 16 N/A
6:54 pm 18:54 Cloudy 25 -4 21 -6 86 86 WNW 17 28 29.80 1009 10 16 N/A
7:15 pm 19:15 Cloudy 25 -4 21 -6 86 86 WNW 14 22 29.80 1009 10 16 N/A
7:34 pm 19:34 Cloudy 25 -4 19 -7 80 80 WNW 12 19 29.83 1010 10 16 N/A
7:54 pm 19:54 Cloudy 25 -4 19 -7 80 80 WNW 17 28 29.83 1010 5 8 N/A
8:15 pm 20:15 Cloudy 23 -5 18 -8 80 80 WNW 14 22 29.83 1010 7 11 N/A
8:34 pm 20:34 Cloudy 23 -5 18 -8 80 80 WNW 15 24 29.83 1010 10 16 N/A
8:54 pm 20:54 Cloudy 23 -5 18 -8 80 80 WNW 17 28 29.83 1010 10 16 N/A
9:15 pm 21:15 Cloudy 23 -5 16 -9 74 74 W 15 24 29.83 1010 10 16 N/A
9:34 pm 21:34 Cloudy 21 -6 16 -9 80 80 W 13 20 29.83 1010 10 16 N/A
9:54 pm 21:54 Cloudy 23 -5 18 -8 80 80 W 12 19 29.83 1010 10 16 N/A
10:15 pm 22:15 Cloudy 23 -5 18 -8 80 80 W 12 19 29.83 1010 10 16 N/A
10:34 pm 22:34 Cloudy 23 -5 18 -8 80 80 W 14 22 29.80 1009 10 16 N/A
10:55 pm 22:55 Cloudy 23 -5 18 -8 80 80 W 12 19 29.80 1009 10 16 N/A
11:14 pm 23:14 Cloudy 23 -5 18 -8 80 80 W 12 19 29.80 1009 10 16 N/A
11:55 pm 23:55 Cloudy 23 -5 18 -8 80 80 W 14 22 29.80 1009 10 16 N/A

Powered by AerisWeather